#timestamp,LO_Frequency,Hit,StdDev 
1649023215.1,286046988.1,Y
1649023216.0,286046988.1,P
1649023235.8,286046992.6,N
1649023255.7,286046994.1,N
1649023275.5,286046994.8,N
1649023295.3,286046994.6,N
1649023315.2,286046994.9,N
1649023335.0,286046996.8,N
1649023335.9,286046996.8,N
1649023355.8,286046997.7,N
1649023375.6,286046999.3,N
1649023395.4,286046997.4,N
1649023415.3,286046998.3,N
1649023435.1,286046997.4,N
1649023455.8,286046997.3,N
1649023475.7,286046997.5,N
1649023495.5,286046993.7,N
1649023515.4,286046991.5,Y
1649023535.2,286046993.6,P
1649023555.0,286046996.2,P
1649023555.9,286046996.2,P
1649023575.8,286046996.8,Y
1649023595.6,286047004.7,P
1649023615.5,286047007.9,N
1649023635.3,286047003.4,N
1649023655.1,286047002.9,N
1649023675.9,286047005.9,N
1649023695.7,286047008.7,N
1649023715.6,286047007.2,N
1649023735.4,286047004.8,N
1649023755.2,286047003.1,N
1649023775.1,286047001.8,N
1649023776.0,286047001.8,N
1649023795.8,286047006.8,N
1649023815.6,286047008.3,N
1649023835.5,286047011.8,Y
1649023855.3,286047006.7,P
1649023875.2,286047005.1,P
1649023895.9,286047005.0,P
1649023915.7,286047003.2,Y
1649023935.6,286046999.4,P
1649023955.4,286047000.0,N
1649023975.3,286047000.3,N
1649023995.1,286046999.7,N
1649023996.0,286046999.7,N
1649024015.8,286047002.5,N
1649024035.7,286047006.0,N
1649024055.5,286047002.5,N
1649024075.3,286047000.1,N
1649024095.2,286046998.4,N
1649024115.0,286046999.9,N
1649024115.9,286046999.9,N
1649024135.8,286047001.0,N
1649024155.6,286046998.8,N
1649024175.4,286047000.0,N
1649024195.3,286047002.6,N
1649024215.1,286046999.7,N
1649024235.9,286046997.9,N
1649024255.7,286046995.8,N
1649024275.5,286046993.3,N
1649024295.4,286046998.4,N
1649024315.2,286046999.1,N
1649024335.0,286047001.2,N
1649024335.9,286047001.2,N
1649024355.8,286047001.3,N
1649024375.6,286047002.2,N
1649024395.5,286046999.9,N
1649024415.3,286047001.7,N
1649024435.1,286047002.2,N
1649024455.9,286047000.8,N
1649024475.7,286046996.0,N
1649024495.5,286046994.5,N
1649024515.4,286046995.2,N
1649024535.2,286046995.2,N
1649024555.1,286046996.1,N
1649024556.0,286046996.1,N
1649024575.8,286046993.8,N
1649024595.6,286046997.2,N
1649024615.5,286046996.2,N
1649024635.3,286046993.6,N
1649024655.1,286046993.4,N
1649024675.9,286046996.3,N
1649024695.7,286046996.5,N
1649024715.6,286046999.9,N
1649024735.4,286047000.5,N
1649024755.2,286047002.5,N
1649024775.1,286047003.5,N
1649024776.0,286047003.5,N
1649024795.8,286047005.9,N
1649024815.6,286047001.4,N
1649024835.5,286047002.7,N
1649024855.3,286046999.7,N
1649024875.2,286047000.9,N
1649024895.9,286047000.2,N
1649024915.7,286047000.2,N
1649024935.6,286046998.5,N
1649024955.4,286047000.6,N
1649024975.2,286046997.1,N
1649024995.1,286046997.5,N
1649024996.0,286046997.5,N
1649025015.8,286046995.7,N
1649025035.7,286046995.5,N
1649025085.5,286047000.0,E
1649025095.4,286047000.6,N
1649025115.3,286046999.3,P
1649025135.1,286046998.1,N
1649025155.9,286047000.6,N
1649025175.7,286047000.9,N
1649025195.5,286047001.0,N
1649025215.4,286047006.0,Y
1649025235.2,286047002.1,P
1649025255.0,286047002.5,N
1649025255.9,286047002.5,N
1649025275.8,286047005.6,Y
1649025295.6,286047003.0,P
1649025315.5,286047007.6,P
1649025335.3,286047008.8,P
1649025355.1,286047001.3,N
1649025375.9,286047003.1,N
1649025395.7,286047004.1,N
1649025415.5,286047003.3,N
1649025435.4,286047003.0,N
1649025455.2,286047006.4,N
1649025475.1,286047009.0,Y
1649025476.0,286047009.0,P
1649025495.8,286047005.2,N
1649025515.6,286047005.2,N
1649025535.5,286047003.8,N
1649025555.3,286047002.2,N
1649025575.2,286047002.1,N
1649025595.9,286046999.1,N
1649025615.7,286046998.2,N
1649025635.6,286046999.4,N
1649025655.4,286046998.6,N
1649025675.2,286047001.2,N
1649025695.1,286046997.9,N
1649025696.0,286046997.9,N
1649025715.8,286046995.6,N
1649025735.7,286046993.6,N
1649025755.5,286046995.5,N
1649025775.3,286046998.3,N
1649025795.2,286046997.3,N
1649025815.9,286046996.3,N
1649025835.7,286046993.5,N
1649025855.6,286046994.5,N
1649025875.4,286046990.3,N
1649025895.2,286046991.8,N
1649025915.1,286046992.2,N
1649025916.0,286046992.2,N
1649025935.8,286046990.4,N
1649025955.7,286046994.1,N
1649025975.5,286046995.1,N
1649025995.3,286046999.5,N
1649026015.2,286046991.8,N
1649026035.0,286046993.4,N
1649026035.9,286046993.4,N
1649026055.8,286046998.2,N
1649026075.6,286047000.7,N
1649026095.4,286046995.0,N
1649026115.3,286046996.4,N
1649026135.1,286046991.9,N
1649026155.8,286046994.7,N
1649026175.7,286046995.7,N
1649026195.5,286046997.2,N
1649026215.4,286046998.3,N
1649026235.2,286046998.3,N
1649026255.0,286047001.0,N
1649026255.9,286047001.0,N
1649026275.8,286046998.3,N
1649026295.6,286046999.5,N
1649026315.4,286046996.4,N
1649026335.3,286046993.7,N
1649026355.1,286046995.7,N
1649026375.9,286046997.3,N
1649026395.7,286046995.1,N
1649026415.5,286046995.0,N
1649026435.4,286046996.8,N
1649026455.2,286046999.0,N
1649026475.0,286047001.0,N
1649026475.9,286047001.0,N
1649026495.8,286046997.9,N
1649026515.6,286046994.9,N
1649026535.5,286046996.4,N
1649026555.3,286046993.7,N
1649026575.1,286046996.3,N
1649026595.9,286046999.6,N
1649026615.7,286046996.6,N
1649026635.5,286046993.5,N
1649026655.4,286046993.9,N
1649026675.2,286046986.3,Y
1649026695.1,286047007.6,P
1649026696.0,286047011.9,N
1649026715.8,286047003.6,N
1649026735.6,286047002.2,N
1649026755.5,286047002.4,N
1649026775.3,286047001.0,N
1649026795.1,286046996.6,N
